COSMOS 1275 DEB, 12666

Orbit data source: Space-Track

COSMOS 1275 DEB, 12666 is space debris in LEO originally from a launch on Thu, 04 Jun 1981 UTC launched from the Plesetsk Missile And Space Complex (PKMTR). Debris objects in space refer to the collection of defunct objects orbiting the Earth. Examples of debris include non-operational satellites, rocket bodies, and fragments generated from explosions, collisions, or faulty payload assembly.

Loading next visibility...
Identifier
12666, 1981-053W
Orbit
LEO
Country
Flag of CISCIS
Related business
Manufacturer
Unknown
Mission
Spacecraft
Bus & Motor
Unknown
Mass
Unknown
Launch date (UTC)
1981-06-04 (45 years ago)
Launch vehicle
Unknown
Launch site
Plesetsk Missile And Space Complex (PKMTR)
Object type
Payload
Rocket body
Debris
Shape & HBR
Unknown shape, 0.2 m
Radar Cross Section
Small (<0.1 m²)

Expand to show TLE details & history
Last TLE update: 4 hours ago

TLE from 4 hours ago
0 COSMOS 1275 DEB
1 12666U 81053W   25351.02998145  .00000410  00000-0  41109-3 0  9995
2 12666  82.8721 356.8788 0069451  40.8782 346.3026 13.74287076218066
Epoch: 2025-12-17T00:43Z
TLE epoch observation values (Epoch: 2025-12-17T00:43:10.397Z)
Latitude
26.80215°
Longitude
-96.21719°
Altitude
937.812 km
Speed
7.41 km/s
True Right ascension
00h 01m 55s
True Declination
26° 40' 03"
Sunlit
Object was in daylight at epoch
Visualization orbit readout
Latitude
Unknown
Longitude
Unknown
Altitude
Unknown
Speed
Unknown
Apparent Right ascension
Unknown
Apparent Declination
Unknown
Sunlit
N/A
Visualization observer readout
Local Sidereal Time
03:41:31
Azimuth
Unknown
Elevation
Unknown
Doppler factor
Unknown
Orbital elements
Apogee altitude
1,032.485 km
Perigee altitude
930.26 km
Semi-major axis
7,359.509 km
Eccentricity
0.00695
Inclination
82.8721°
RAAN
356.8788°
Arg. of periapsis
40.8782°
True anomaly
346.11255°
Mean anomaly
346.3026°
Eccentric anomaly
346.20773°
Mean motion
3.43772 °/min
Orbital period
104.72 mins
BSTAR
0.00041109
Loading maneuver chart data...
Computing Atmospheric mass density...
Loading historical data...
Loading historical data...
Loading historical data...
Loading historical data...
Loading historical data...
Loading historical data...
Loading historical data...

Documentation

Showing up to 5 results
|